This is the latest recevied weather packets stored in our database for station/object KR8N. If no packets are shown the sender has not sent any weather packets the latest 10 day(s).
| Time | Temp. | Humidity | Pressure | Rain* | Wind** | Luminosity | Snow |
|---|---|---|---|---|---|---|---|
| 1778056610 | 13.33° C | 88% | 1012.3 hPa | 6.6 mm | - | 0 W/m² | - |
| 1778056307 | 13.33° C | 85% | 1012.7 hPa | 6.6 mm | - | 0 W/m² | - |
| 1778056005 | 13.33° C | 84% | 1012.7 hPa | 6.1 mm | - | 0 W/m² | - |
| 1778055705 | 13.89° C | 81% | 1012.8 hPa | 6.1 mm | - | 0 W/m² | - |
| 1778055403 | 14.44° C | 79% | 1012.5 hPa | 4.32 mm | - | 0 W/m² | - |
| 1778055101 | 14.44° C | 76% | 1012.4 hPa | 3.05 mm | - | 0 W/m² | - |
| 1778054798 | 15° C | 73% | 1012.6 hPa | 1.78 mm | - | 0 W/m² | - |
| 1778054495 | 15.56° C | 70% | 1012.4 hPa | 3.05 mm | - | 0 W/m² | - |
| 1778054193 | 16.67° C | 65% | 1012.4 hPa | 1.27 mm | - | 0 W/m² | - |
| 1778053889 | 17.22° C | 59% | 1012.3 hPa | 0 mm | - | 0 W/m² | - |
| 1778053587 | 17.22° C | 55% | 1012.3 hPa | 0 mm | - | 0 W/m² | - |
| 1778053284 | 17.22° C | 53% | 1012.1 hPa | 0 mm | - | 0 W/m² | - |
| 1778052982 | 17.22° C | 53% | 1012.1 hPa | 0 mm | - | 0 W/m² | - |
| 1778052679 | 17.22° C | 53% | 1012 hPa | 0 mm | - | 0 W/m² | - |
| 1778052375 | 17.22° C | 54% | 1012.1 hPa | 0 mm | - | 0 W/m² | - |
| 1778052073 | 17.22° C | 55% | 1012.2 hPa | 0 mm | - | 0 W/m² | - |
| 1778051771 | 17.22° C | 52% | 1011.8 hPa | 0 mm | - | 0 W/m² | - |
| 1778051468 | 17.22° C | 54% | 1012.1 hPa | 0 mm | - | 0 W/m² | - |
| 1778051165 | 17.22° C | 52% | 1012.1 hPa | 0 mm | - | 0 W/m² | - |
| 1778050862 | 17.22° C | 53% | 1012.2 hPa | 0 mm | - | 0 W/m² | - |
| 1778050561 | 17.22° C | 52% | 1012.2 hPa | 0 mm | - | 0 W/m² | - |
| 1778050256 | 17.22° C | 53% | 1012.2 hPa | 0 mm | - | 0 W/m² | - |
| 1778049954 | 17.22° C | 52% | 1012.3 hPa | 0 mm | - | 0 W/m² | - |
| 1778049649 | 17.22° C | 53% | 1012.2 hPa | 0 mm | - | 0 W/m² | - |
| 1778049347 | 17.22° C | 51% | 1012.5 hPa | 0 mm | - | 0 W/m² | - |
* Rain latest hour (hover to see other rain measurements)
** Current wind speed in m/s (hover to see current wind gust speed)